Location: Boss Branch
(32.3799°N, 97.2508°W)
Time: 19:04:26
(UTC+00:00)

deb Explorer IX - Pass Details

Date: 12 November 2024
Orbit: 488 x 740 km, 38.7° (Epoch: 13 December)

Event Time Altitude Azimuth Distance (km) Brightness Sun altitude
Rises 00:08:21 0° 230° (SW) 2,977 ? -8.4°
Reaches altitude 10° 00:10:39 10° 226° (SW) 2,117 ? -8.9°
Maximum altitude 00:15:31 55° 149° (SSE) 873 ? -9.9°
Enters shadow 00:20:02 14° 75° (ENE) 2,015 ? -10.8°
